Location: ???????
(55.4362°N, 38.1183°E)
Time: 09:26:19
(UTC+00:00)

Oscar 11 - Pass Details

Date: 10 December 2021
Orbit: 611 x 625 km, 97.6° (Epoch: 25 January)

Event Time Altitude Azimuth Distance (km) Brightness Sun altitude
Rises 01:44:55 0° 25° (NNE) 2,919 10.9 -32.1°
Reaches altitude 10° 01:47:48 10° 45° (NE) 2,004 10.2 -31.7°
Maximum altitude 01:50:44 18° 88° (E) 1,557 9.8 -31.3°
Drops below altitude 10° 01:53:39 10° 130° (SE) 1,987 10.1 -30.9°
Sets 01:56:29 0° 150° (SSE) 2,884 10.8 -30.5°
